TimeCDT,TemperatureF,Dew PointF,Humidity,Sea Level PressureIn,VisibilityMPH,Wind Direction,Wind SpeedMPH,Gust SpeedMPH,PrecipitationIn,Events,Conditions,WindDirDegrees,DateUTC
12:14 AM,46.4,19.4,34,29.89,10.0,SSE,9.2,-,N/A,,Clear,150,2012-10-02 05:14:00
12:34 AM,44.6,19.4,37,29.89,10.0,SSE,8.1,-,N/A,,Clear,150,2012-10-02 05:34:00
12:55 AM,44.6,19.4,37,29.89,10.0,SSE,9.2,-,N/A,,Clear,150,2012-10-02 05:55:00
1:14 AM,44.6,19.4,37,29.88,10.0,SSE,9.2,-,N/A,,Clear,150,2012-10-02 06:14:00
1:34 AM,44.6,19.4,37,29.87,10.0,SSE,9.2,-,N/A,,Clear,150,2012-10-02 06:34:00
1:54 AM,44.6,21.2,39,29.87,10.0,SSE,8.1,-,N/A,,Clear,150,2012-10-02 06:54:00
2:14 AM,44.6,21.2,39,29.86,10.0,SSE,9.2,-,N/A,,Clear,150,2012-10-02 07:14:00
2:35 AM,44.6,21.2,39,29.85,10.0,SSE,9.2,-,N/A,,Clear,150,2012-10-02 07:35:00
2:54 AM,42.8,21.2,42,29.85,10.0,SSE,9.2,-,N/A,,Clear,150,2012-10-02 07:54:00
3:14 AM,42.8,23.0,46,29.84,10.0,SSE,10.4,-,N/A,,Clear,150,2012-10-02 08:14:00
3:34 AM,44.6,24.8,46,29.83,10.0,SSE,10.4,-,N/A,,Clear,150,2012-10-02 08:34:00
3:55 AM,44.6,24.8,46,29.83,10.0,SSE,10.4,-,N/A,,Clear,160,2012-10-02 08:55:00
4:14 AM,44.6,24.8,46,29.83,10.0,SSE,11.5,-,N/A,,Clear,160,2012-10-02 09:14:00
4:21 AM,44.6,24.8,46,29.82,10.0,SSE,10.4,-,N/A,,Clear,160,2012-10-02 09:21:00
4:49 AM,44.6,24.8,46,29.81,10.0,SSE,11.5,-,N/A,,Clear,150,2012-10-02 09:49:00
5:34 AM,44.6,26.6,49,29.80,10.0,SSE,12.7,-,N/A,,Clear,160,2012-10-02 10:34:00
5:54 AM,44.6,26.6,49,29.79,10.0,SSE,13.8,-,N/A,,Clear,160,2012-10-02 10:54:00
6:15 AM,44.6,26.6,49,29.78,10.0,SSE,13.8,-,N/A,,Clear,160,2012-10-02 11:15:00
6:34 AM,44.6,26.6,49,29.77,10.0,SSE,15.0,-,N/A,,Clear,160,2012-10-02 11:34:00
6:54 AM,46.4,26.6,46,29.77,10.0,South,18.4,24.2,N/A,,Clear,170,2012-10-02 11:54:00
7:15 AM,48.2,26.6,43,29.76,10.0,South,18.4,-,N/A,,Clear,170,2012-10-02 12:15:00
7:34 AM,48.2,26.6,43,29.76,10.0,South,17.3,-,N/A,,Clear,170,2012-10-02 12:34:00
7:54 AM,48.2,26.6,43,29.75,10.0,South,18.4,24.2,N/A,,Clear,170,2012-10-02 12:54:00
8:15 AM,48.2,26.6,43,29.74,10.0,South,19.6,-,N/A,,Clear,170,2012-10-02 13:15:00
8:34 AM,51.8,26.6,38,29.72,10.0,South,25.3,29.9,N/A,,Clear,170,2012-10-02 13:34:00
8:54 AM,53.6,26.6,35,29.71,10.0,South,26.5,29.9,N/A,,Clear,170,2012-10-02 13:54:00
9:14 AM,53.6,26.6,35,29.70,10.0,South,26.5,36.8,N/A,,Clear,180,2012-10-02 14:14:00
9:34 AM,55.4,26.6,33,29.68,10.0,South,26.5,35.7,N/A,,Clear,180,2012-10-02 14:34:00
9:55 AM,57.2,26.6,31,29.67,10.0,South,32.2,39.1,N/A,,Clear,180,2012-10-02 14:55:00
10:14 AM,57.2,26.6,31,29.67,10.0,South,29.9,36.8,N/A,,Clear,180,2012-10-02 15:14:00
10:34 AM,60.8,28.4,29,29.65,10.0,South,29.9,40.3,N/A,,Clear,180,2012-10-02 15:34:00
10:54 AM,62.6,28.4,27,29.64,10.0,South,33.4,44.9,N/A,,Clear,180,2012-10-02 15:54:00
11:14 AM,64.4,28.4,26,29.63,10.0,South,35.7,43.7,N/A,,Clear,180,2012-10-02 16:14:00
11:34 AM,64.4,28.4,26,29.61,10.0,South,33.4,43.7,N/A,,Clear,180,2012-10-02 16:34:00
11:54 AM,66.2,28.4,24,29.61,10.0,South,35.7,46.0,N/A,,Clear,190,2012-10-02 16:54:00
12:14 PM,68.0,28.4,23,29.60,10.0,South,34.5,46.0,N/A,,Clear,190,2012-10-02 17:14:00
12:34 PM,69.8,26.6,20,29.60,10.0,SSW,36.8,43.7,N/A,,Clear,200,2012-10-02 17:34:00
12:54 PM,71.6,28.4,20,29.60,10.0,SSW,39.1,48.3,N/A,,Clear,200,2012-10-02 17:54:00
1:14 PM,71.6,26.6,19,29.59,7.0,SSW,33.4,46.0,N/A,,Clear,200,2012-10-02 18:14:00
1:34 PM,73.4,26.6,18,29.58,10.0,SSW,31.1,41.4,N/A,,Clear,200,2012-10-02 18:34:00
1:54 PM,73.4,28.4,19,29.58,7.0,SSW,34.5,42.6,N/A,,Clear,210,2012-10-02 18:54:00
2:14 PM,75.2,28.4,18,29.58,7.0,SSW,32.2,39.1,N/A,,Clear,210,2012-10-02 19:14:00
2:34 PM,75.2,30.2,19,29.58,10.0,SSW,25.3,33.4,N/A,,Clear,210,2012-10-02 19:34:00
2:54 PM,77.0,33.8,21,29.58,10.0,WSW,24.2,31.1,N/A,,Clear,250,2012-10-02 19:54:00
3:14 PM,77.0,35.6,22,29.58,10.0,WSW,21.9,27.6,N/A,,Clear,250,2012-10-02 20:14:00
3:34 PM,77.0,35.6,22,29.58,10.0,West,18.4,29.9,N/A,,Clear,270,2012-10-02 20:34:00
3:54 PM,75.2,35.6,24,29.58,10.0,West,18.4,23.0,N/A,,Clear,270,2012-10-02 20:54:00
4:14 PM,75.2,37.4,25,29.59,10.0,West,15.0,-,N/A,,Clear,260,2012-10-02 21:14:00
4:34 PM,75.2,37.4,25,29.59,10.0,West,20.7,25.3,N/A,,Clear,260,2012-10-02 21:34:00
4:55 PM,75.2,37.4,25,29.60,10.0,WSW,13.8,-,N/A,,Clear,250,2012-10-02 21:55:00
5:14 PM,75.2,37.4,25,29.60,10.0,West,18.4,-,N/A,,Clear,260,2012-10-02 22:14:00
5:34 PM,75.2,35.6,24,29.62,10.0,West,16.1,-,N/A,,Clear,270,2012-10-02 22:34:00
5:55 PM,75.2,35.6,24,29.62,10.0,West,13.8,-,N/A,,Scattered Clouds,280,2012-10-02 22:55:00
6:14 PM,73.4,35.6,25,29.63,10.0,WNW,11.5,-,N/A,,Scattered Clouds,290,2012-10-02 23:14:00
6:34 PM,73.4,37.4,27,29.63,10.0,West,13.8,-,N/A,,Mostly Cloudy,260,2012-10-02 23:34:00
7:14 PM,71.6,37.4,29,29.66,10.0,West,9.2,-,N/A,,Overcast,270,2012-10-03 00:14:00
7:34 PM,71.6,37.4,29,29.66,10.0,West,12.7,-,N/A,,Mostly Cloudy,280,2012-10-03 00:34:00
8:14 PM,64.4,35.6,34,29.68,10.0,WNW,6.9,-,N/A,,Clear,300,2012-10-03 01:14:00
8:34 PM,64.4,35.6,34,29.69,10.0,West,5.8,-,N/A,,Clear,280,2012-10-03 01:34:00
9:14 PM,55.4,33.8,44,29.70,10.0,West,8.1,-,N/A,,Clear,270,2012-10-03 02:14:00
9:34 PM,53.6,35.6,51,29.71,10.0,West,8.1,-,N/A,,Clear,270,2012-10-03 02:34:00
9:55 PM,55.4,32.0,41,29.72,10.0,SW,4.6,-,N/A,,Clear,230,2012-10-03 02:55:00
10:14 PM,53.6,33.8,47,29.72,10.0,WSW,8.1,-,N/A,,Clear,250,2012-10-03 03:14:00
10:34 PM,51.8,32.0,47,29.73,10.0,West,9.2,-,N/A,,Clear,270,2012-10-03 03:34:00
10:55 PM,51.8,33.8,50,29.74,10.0,West,9.2,-,N/A,,Clear,270,2012-10-03 03:55:00
11:14 PM,51.8,33.8,50,29.74,10.0,West,9.2,-,N/A,,Clear,270,2012-10-03 04:14:00
11:34 PM,51.8,33.8,50,29.74,10.0,West,8.1,-,N/A,,Clear,270,2012-10-03 04:34:00
11:54 PM,50.0,33.8,54,29.74,10.0,West,8.1,-,N/A,,Clear,270,2012-10-03 04:54:00